Home   Weather   Rustenburg   Past weeks

Flag for South Africa Past Weather in Rustenburg, South Africa — Yesterday and Last 2 Weeks

Now
68 °F

Mild.


Feels Like: 68 °F
Forecast: 65 / 87 °F
Wind: 6 mph from Southeast

Location: Lanseria Civ / Mil

Current Time: Dec 10, 2016 at 3:29:49 am

Latest Report: Dec 10, 2016 at 3:00 am


Visibility: N/A

Pressure: 30.07 "Hg (26.25 "Hg at 1166m altitude)

Humidity: 73%

Dew Point: 59 °F

Location of RustenburgLocation

Past Weather in Rustenburg — Graph

°F

Rustenburg Temperature Yesterday

Maximum temperature yesterday: 88 °F (at 2:00 pm)
Minimum temperature yesterday: 66 °F (at 5:00 am)
Average temperature yesterday: 76 °F

High & Low Weather Summary for the Past Weeks

 TemperatureHumidityPressure
High93 °F (Nov 30, 4:00 pm)94% (Dec 5, 4:00 am)30.27 "Hg (Dec 5, 4:00 am)
Low57 °F (Nov 25, 5:00 am)22% (Dec 1, 5:00 pm)29.95 "Hg (Dec 1, 5:00 pm)
Average74 °F55%30.15 "Hg
* Reported Nov 25 2:00 am — Dec 10 1:10 am, Rustenburg, Weather by CustomWeather, © 2016

Note: Actual official high and low records may vary slightly from our data, if they occured in-between our weather recording intervals... More about our weather records

Advertising

Rustenburg Weather History for the Previous 24 Hours

Scroll right to see more
 ConditionsComfort  
Time TempWeatherWind HumidityBarometerVisibility
1:10 am
Sat, Dec 10
68 °FMild.3 mph73%30.09 "HgN/A
12:00 am72 °FMild.8 mph53%30.09 "HgN/A
10:00 pm
Fri, Dec 9
73 °FClear.13 mph61%30.12 "Hg10 mi
9:00 pm72 °FClear.2 mph73%30.07 "Hg10 mi
8:00 pm75 °FPassing clouds.5 mph65%30.04 "HgN/A
7:00 pm75 °FPassing clouds.6 mph69%30.04 "HgN/A
6:00 pm77 °FScattered clouds.5 mph61%30.04 "HgN/A
5:00 pm75 °FScattered clouds.13 mph65%30.04 "Hg5 mi
4:00 pm77 °FHail. Scattered clouds.5 mph47%30.07 "Hg3 mi
3:00 pm88 °FScattered clouds.15 mph31%30.04 "HgN/A
2:00 pm88 °FScattered clouds.13 mph31%30.07 "HgN/A
1:00 pm84 °FPassing clouds.13 mph33%30.09 "HgN/A
12:00 pm84 °FPassing clouds.12 mph40%30.12 "HgN/A
11:00 am81 °FPassing clouds.14 mph42%30.15 "HgN/A
10:00 am79 °FSunny.14 mph45%30.15 "Hg10 mi
9:00 am75 °FPassing clouds.8 mph50%30.18 "HgN/A
8:00 am72 °FPassing clouds.3 mph57%30.18 "HgN/A
7:00 am70 °FSunny.No wind60%30.18 "Hg10 mi
6:00 am68 °FSunny.7 mph64%30.15 "Hg10 mi
5:00 am66 °FPassing clouds.6 mph68%30.15 "HgN/A
4:00 am68 °FMild.2 mph64%30.15 "HgN/A
Weather by CustomWeather, © 2016

See weather overviewHow to use our weather pages